Weather History for KFLO - April, 2013

Change the Weather History Date:

Wednesday, April 3, 2013

  Actual Average Record
Temperature  
Mean Temperature 57 °F 60 °F  
Max Temperature 61 °F 73 °F 90 °F (1974)
Min Temperature 52 °F 48 °F 30 °F (1992)
Degree Days  
Heating Degree Days 8 6  
Month to date heating degree days 16 18  
Since 1 July heating degree days 2227 2394  
Cooling Degree Days 0 1  
Month to date cooling degree days 1 3  
Year to date cooling degree days 30 27  
Growing Degree Days 6 (Base 50)    
Moisture  
Dew Point 32 °F    
Average Humidity 50    
Maximum Humidity 77    
Minimum Humidity 22    
Precipitation  
Precipitation 0.00 in 0.09 in 1.22 in (1949)
Month to date precipitation 0.15 0.28  
Year to date precipitation 9.16 9.76  
Sea Level Pressure  
Sea Level Pressure 30.19 in    
Wind  
Wind Speed 8 mph (ENE)    
Max Wind Speed 22 mph    
Max Gust Speed 29 mph    
Visibility 10 miles    
Events      
T = Trace of Precipitation, MM = Missing Value Source: NWS Daily Summary

Daily Weather History Graph

Daily Weather History Graph

Search for Another Location

Airport or City:

Trip Planner

Search our weather history database for the weather conditions in past years. The results will help you decide how hot, cold, wet, or windy it might be!

Date:

Astronomy

Apr. 03, 2013 Rise Set
Actual Time 7:03 AM EDT 7:41 PM EDT
Civil Twilight 6:37 AM EDT 8:06 PM EDT
Nautical Twilight 6:08 AM EDT 8:36 PM EDT
Astronomical Twilight 5:37 AM EDT 9:07 PM EDT
Moon 2:25 AM EDT (4/3) 1:08 PM EDT (4/3)
Length of Visible Light 13h 28m
Length of Day
12h 38m
Last Quarter, 45% of the Moon is Illuminated
Apr 3
Last Quarter
Apr 10
New
Apr 18
First Quarter
Apr 25
Full
May 2
Last Quarter

Hourly Weather History & Observations

Time (EDT) Temp. Dew Point Humidity Pressure Visibility Wind Dir Wind Speed Gust Speed Precip Events Conditions
12:53 AM 53.1 °F 44.1 °F 71% 30.10 in 10.0 mi SSE 3.5 mph - N/A   Overcast
1:53 AM 53.1 °F 46.0 °F 77% 30.11 in 10.0 mi Calm Calm - N/A   Overcast
2:53 AM 53.1 °F 46.0 °F 77% 30.10 in 10.0 mi NNE 5.8 mph - N/A   Overcast
3:35 AM 53.6 °F 44.6 °F 72% 30.10 in 10.0 mi NNE 8.1 mph - N/A   Overcast
3:53 AM 53.1 °F 45.0 °F 74% 30.09 in 10.0 mi NE 6.9 mph - N/A   Overcast
4:53 AM 53.1 °F 45.0 °F 74% 30.11 in 10.0 mi ENE 5.8 mph - N/A   Overcast
5:53 AM 52.0 °F 45.0 °F 77% 30.12 in 10.0 mi NNE 10.4 mph - N/A   Overcast
6:53 AM 52.0 °F 37.0 °F 57% 30.15 in 10.0 mi NNE 12.7 mph - N/A   Overcast
7:50 AM 51.8 °F 26.6 °F 38% 30.19 in 10.0 mi NE 16.1 mph - N/A   Overcast
7:53 AM 52.0 °F 25.0 °F 35% 30.19 in 10.0 mi NE 12.7 mph - N/A   Overcast
8:53 AM 52.0 °F 21.0 °F 30% 30.23 in 10.0 mi NE 16.1 mph 23.0 mph N/A   Overcast
9:53 AM 53.1 °F 19.9 °F 27% 30.23 in 10.0 mi NE 17.3 mph 23.0 mph N/A   Overcast
10:53 AM 55.9 °F 18.0 °F 23% 30.25 in 10.0 mi NE 15.0 mph 27.6 mph N/A   Overcast
11:53 AM 57.0 °F 19.9 °F 24% 30.26 in 10.0 mi ENE 15.0 mph - N/A   Scattered Clouds
12:53 PM 59.0 °F 24.1 °F 26% 30.24 in 10.0 mi ENE 13.8 mph 19.6 mph N/A   Partly Cloudy
1:53 PM 59.0 °F 24.1 °F 26% 30.22 in 10.0 mi ENE 10.4 mph 18.4 mph N/A   Mostly Cloudy
2:53 PM 60.1 °F 26.1 °F 27% 30.20 in 10.0 mi ENE 8.1 mph - N/A   Clear
3:53 PM 61.0 °F 27.0 °F 27% 30.19 in 10.0 mi ENE 9.2 mph - N/A   Clear
4:53 PM 61.0 °F 28.0 °F 29% 30.20 in 10.0 mi NE 5.8 mph - N/A   Mostly Cloudy
5:53 PM 60.1 °F 28.0 °F 30% 30.20 in 10.0 mi NE 6.9 mph - N/A   Partly Cloudy
6:53 PM 59.0 °F 28.9 °F 32% 30.20 in 10.0 mi NE 5.8 mph - N/A   Overcast
7:53 PM 57.0 °F 32.0 °F 39% 30.22 in 10.0 mi ESE 4.6 mph - N/A   Overcast
8:53 PM 55.9 °F 34.0 °F 44% 30.23 in 10.0 mi East 3.5 mph - N/A   Overcast
9:53 PM 54.0 °F 36.0 °F 51% 30.25 in 10.0 mi East 4.6 mph - N/A   Clear
10:53 PM 54.0 °F 35.1 °F 49% 30.26 in 10.0 mi ENE 4.6 mph - N/A   Clear
11:53 PM 53.1 °F 36.0 °F 52% 30.26 in 10.0 mi East 4.6 mph - N/A   Scattered Clouds